NKS6767 KFLL-KBOS

Flight info

Callsign NKS6767
Flight time 2h 34m
Altitude 39000
Route FEALX2 ETECK GRUBR Y299 SEELO WAALT Q131 EARZZ JAMIE CONFR Q133 JFK ROBUC3
Aircraft A20N/M-SDE2E3FGHIRWXY/LB1

Departure

Time 2026-05-03 21:18
Airport Fort Lauderdale Hollywood International Airport (KFLL)

Arrival

Time 2026-05-03 23:52
Airport Boston Logan International Airport (KBOS)
Time Latitude Longitude Altitude Speed Heading
2026-05-03 20:24 26.07147 -80.14689 24 ft 0 kts 180°
2026-05-03 20:39 26.07163 -80.14689 25 ft 3 kts 190°
2026-05-03 20:39 26.07180 -80.14683 24 ft 3 kts 211°
2026-05-03 20:39 26.07192 -80.14670 23 ft 3 kts 255°
2026-05-03 20:39 26.07193 -80.14664 23 ft 1 kts 275°
2026-05-03 20:40 26.07193 -80.14665 23 ft 0 kts 278°
2026-05-03 20:40 26.07194 -80.14672 23 ft 0 kts 280°
2026-05-03 20:46 26.07195 -80.14673 23 ft 1 kts 282°
2026-05-03 20:47 26.07202 -80.14691 24 ft 3 kts 298°
2026-05-03 20:47 26.07219 -80.14723 24 ft 5 kts 301°
2026-05-03 20:47 26.07237 -80.14757 25 ft 6 kts 296°
2026-05-03 20:47 26.07260 -80.14809 29 ft 8 kts 297°
2026-05-03 20:48 26.07300 -80.14849 25 ft 8 kts 343°
2026-05-03 20:48 26.07356 -80.14871 27 ft 10 kts 324°
2026-05-03 20:48 26.07395 -80.14936 27 ft 10 kts 304°
2026-05-03 20:48 26.07441 -80.14992 26 ft 10 kts 318°
2026-05-03 20:49 26.07487 -80.15062 23 ft 13 kts 282°
2026-05-03 20:49 26.07491 -80.15186 21 ft 18 kts 270°
2026-05-03 20:49 26.07491 -80.15329 19 ft 19 kts 271°
2026-05-03 20:49 26.07492 -80.15475 20 ft 18 kts 270°
2026-05-03 20:50 26.07493 -80.15620 22 ft 19 kts 270°
2026-05-03 20:50 26.07494 -80.15769 22 ft 19 kts 270°
2026-05-03 20:50 26.07495 -80.15908 25 ft 16 kts 270°
2026-05-03 20:50 26.07495 -80.16027 28 ft 15 kts 270°
2026-05-03 20:51 26.07495 -80.16139 29 ft 14 kts 270°
2026-05-03 20:51 26.07496 -80.16210 28 ft 7 kts 270°
2026-05-03 20:51 26.07496 -80.16258 27 ft 7 kts 270°
2026-05-03 20:51 26.07496 -80.16283 27 ft 0 kts 270°
2026-05-03 20:52 26.07496 -80.16296 27 ft 2 kts 270°
2026-05-03 20:52 26.07496 -80.16299 27 ft 0 kts 270°
2026-05-03 20:53 26.07496 -80.16304 27 ft 2 kts 270°
2026-05-03 20:53 26.07496 -80.16324 27 ft 2 kts 270°
2026-05-03 20:53 26.07496 -80.16325 27 ft 0 kts 270°
2026-05-03 20:54 26.07496 -80.16327 27 ft 0 kts 270°
2026-05-03 20:54 26.07496 -80.16383 27 ft 0 kts 270°
2026-05-03 20:58 26.07496 -80.16399 27 ft 0 kts 270°
2026-05-03 20:58 26.07496 -80.16409 27 ft 3 kts 270°
2026-05-03 20:59 26.07496 -80.16410 27 ft 0 kts 270°
2026-05-03 20:59 26.07496 -80.16426 27 ft 0 kts 270°
2026-05-03 20:59 26.07496 -80.16446 27 ft 0 kts 270°
2026-05-03 21:01 26.07496 -80.16455 27 ft 6 kts 270°
2026-05-03 21:01 26.07496 -80.16490 28 ft 0 kts 270°
2026-05-03 21:01 26.07496 -80.16503 28 ft 5 kts 270°
2026-05-03 21:02 26.07497 -80.16537 28 ft 0 kts 271°
2026-05-03 21:02 26.07497 -80.16538 28 ft 0 kts 271°
2026-05-03 21:02 26.07497 -80.16541 28 ft 0 kts 271°
2026-05-03 21:03 26.07497 -80.16544 28 ft 1 kts 271°
2026-05-03 21:03 26.07497 -80.16546 28 ft 0 kts 272°
2026-05-03 21:04 26.07498 -80.16565 27 ft 6 kts 271°
2026-05-03 21:05 26.07498 -80.16574 27 ft 0 kts 272°
2026-05-03 21:08 26.07498 -80.16576 27 ft 1 kts 272°
2026-05-03 21:08 26.07505 -80.16610 27 ft 9 kts 296°
2026-05-03 21:08 26.07516 -80.16625 26 ft 4 kts 315°
2026-05-03 21:09 26.07517 -80.16626 26 ft 0 kts 317°
2026-05-03 21:12 26.07528 -80.16634 28 ft 5 kts 330°
2026-05-03 21:12 26.07564 -80.16643 28 ft 6 kts 359°
2026-05-03 21:13 26.07565 -80.16643 27 ft 0 kts 359°
2026-05-03 21:13 26.07572 -80.16644 28 ft 0 kts 360°
2026-05-03 21:14 26.07586 -80.16644 26 ft 6 kts 360°
2026-05-03 21:14 26.07594 -80.16644 26 ft 0 kts 360°
2026-05-03 21:15 26.07613 -80.16644 26 ft 5 kts 360°
2026-05-03 21:16 26.07669 -80.16631 25 ft 10 kts 30°
2026-05-03 21:16 26.07693 -80.16583 25 ft 0 kts 84°
2026-05-03 21:16 26.07693 -80.16580 29 ft 0 kts 85°
2026-05-03 21:17 26.07695 -80.16488 27 ft 44 kts 90°
2026-05-03 21:18 26.07691 -80.15839 26 ft 125 kts 90°
2026-05-03 21:18 26.07690 -80.14618 183 ft 182 kts 88°
2026-05-03 21:18 26.07574 -80.13119 675 ft 204 kts 98°
2026-05-03 21:18 26.07445 -80.11500 1438 ft 217 kts 88°
2026-05-03 21:19 26.07531 -80.09761 2133 ft 235 kts 86°
2026-05-03 21:19 26.07612 -80.07871 2804 ft 253 kts 88°
2026-05-03 21:19 26.07662 -80.05852 3548 ft 268 kts 89°
2026-05-03 21:19 26.07636 -80.03738 4326 ft 280 kts 96°
2026-05-03 21:20 26.07448 -80.01503 4972 ft 298 kts 93°
2026-05-03 21:20 26.07508 -79.99236 5479 ft 291 kts 82°
2026-05-03 21:20 26.07990 -79.97045 5933 ft 296 kts 68°
2026-05-03 21:20 26.08965 -79.94977 6488 ft 308 kts 53°
2026-05-03 21:21 26.10441 -79.93220 7059 ft 316 kts 36°
2026-05-03 21:21 26.12356 -79.92005 7671 ft 320 kts 16°
2026-05-03 21:21 26.14474 -79.91331 8400 ft 323 kts 14°
2026-05-03 21:21 26.16582 -79.90398 9237 ft 327 kts 23°
2026-05-03 21:22 26.18492 -79.89065 10307 ft 323 kts 38°
2026-05-03 21:22 26.20024 -79.87163 10931 ft 341 kts 54°
2026-05-03 21:22 26.21283 -79.84829 11290 ft 361 kts 60°
2026-05-03 21:22 26.22489 -79.82310 11781 ft 374 kts 61°
2026-05-03 21:23 26.23703 -79.79720 12421 ft 380 kts 61°
2026-05-03 21:23 26.24936 -79.77093 13050 ft 386 kts 61°
2026-05-03 21:23 26.26192 -79.74413 13765 ft 395 kts 63°
2026-05-03 21:23 26.27456 -79.71678 14470 ft 397 kts 62°
2026-05-03 21:24 26.28316 -79.69868 14908 ft 399 kts 60°
2026-05-03 21:24 26.29860 -79.67290 15459 ft 402 kts 48°
2026-05-03 21:24 26.31739 -79.64968 15872 ft 403 kts 44°
2026-05-03 21:24 26.33700 -79.62719 15994 ft 405 kts 43°
2026-05-03 21:25 26.36316 -79.59747 15998 ft 407 kts 43°
2026-05-03 21:25 26.38295 -79.57488 16000 ft 407 kts 43°
2026-05-03 21:25 26.39633 -79.55955 15996 ft 407 kts 43°
2026-05-03 21:25 26.41607 -79.53689 15997 ft 407 kts 43°
2026-05-03 21:26 26.43583 -79.51416 16003 ft 407 kts 43°
2026-05-03 21:26 26.45534 -79.49169 16000 ft 407 kts 43°
2026-05-03 21:26 26.47509 -79.46892 15998 ft 407 kts 43°
2026-05-03 21:26 26.49479 -79.44619 15993 ft 408 kts 43°
2026-05-03 21:27 26.51453 -79.42340 15998 ft 409 kts 44°
2026-05-03 21:27 26.53433 -79.40062 15999 ft 408 kts 43°
2026-05-03 21:27 26.55533 -79.37950 16018 ft 406 kts 34°
2026-05-03 21:27 26.57856 -79.36167 16025 ft 403 kts 28°
2026-05-03 21:28 26.60253 -79.34517 16140 ft 405 kts 27°
2026-05-03 21:28 26.62648 -79.32899 16745 ft 409 kts 27°
2026-05-03 21:28 26.65091 -79.31247 17461 ft 412 kts 27°
2026-05-03 21:28 26.67557 -79.29577 18084 ft 416 kts 27°
2026-05-03 21:29 26.69811 -79.28046 18579 ft 420 kts 27°
2026-05-03 21:29 26.72324 -79.26336 19045 ft 424 kts 27°
2026-05-03 21:29 26.74852 -79.24615 19498 ft 428 kts 27°
2026-05-03 21:29 26.77411 -79.22871 19955 ft 433 kts 27°
2026-05-03 21:30 26.79994 -79.21109 20401 ft 437 kts 27°
2026-05-03 21:30 26.82608 -79.19325 20867 ft 441 kts 27°
2026-05-03 21:30 26.85236 -79.17530 21341 ft 445 kts 27°
2026-05-03 21:30 26.87890 -79.15716 21787 ft 448 kts 27°
2026-05-03 21:31 26.90567 -79.13886 22226 ft 452 kts 27°
2026-05-03 21:31 26.93229 -79.12065 22674 ft 456 kts 27°
2026-05-03 21:31 26.95949 -79.10203 23113 ft 459 kts 27°
2026-05-03 21:31 26.98686 -79.08328 23533 ft 463 kts 27°
2026-05-03 21:32 27.01450 -79.06434 23904 ft 466 kts 27°
2026-05-03 21:32 27.04233 -79.04526 24262 ft 469 kts 27°
2026-05-03 21:32 27.07031 -79.02607 24592 ft 474 kts 27°
2026-05-03 21:32 27.09867 -79.00660 24898 ft 478 kts 27°
2026-05-03 21:33 27.12709 -78.98708 25244 ft 481 kts 27°
2026-05-03 21:33 27.15573 -78.96739 25577 ft 483 kts 27°
2026-05-03 21:33 27.18414 -78.94785 25901 ft 486 kts 27°
2026-05-03 21:33 27.21340 -78.92771 26255 ft 488 kts 27°
2026-05-03 21:34 27.24203 -78.90799 26553 ft 491 kts 26°
2026-05-03 21:34 27.27126 -78.88785 26850 ft 493 kts 26°
2026-05-03 21:34 27.30059 -78.86763 27175 ft 496 kts 26°
2026-05-03 21:34 27.33006 -78.84731 27556 ft 499 kts 26°
2026-05-03 21:35 27.35968 -78.82680 27957 ft 501 kts 26°
2026-05-03 21:35 27.39031 -78.80813 28298 ft 498 kts 18°
2026-05-03 21:35 27.42287 -78.79561 28554 ft 490 kts
2026-05-03 21:35 27.45629 -78.78902 28800 ft 487 kts
2026-05-03 21:36 27.49001 -78.78401 29068 ft 488 kts 360°
2026-05-03 21:36 27.52383 -78.77923 29329 ft 490 kts 359°
2026-05-03 21:36 27.55775 -78.77440 29604 ft 492 kts 360°
2026-05-03 21:36 27.59136 -78.76957 29944 ft 493 kts 360°
2026-05-03 21:37 27.62583 -78.76455 30296 ft 493 kts 359°
2026-05-03 21:37 27.65994 -78.75959 30490 ft 496 kts 359°
2026-05-03 21:37 27.69374 -78.75465 30806 ft 496 kts 359°
2026-05-03 21:37 27.72811 -78.74960 31141 ft 495 kts 359°
2026-05-03 21:38 27.76226 -78.74458 31479 ft 495 kts 359°
2026-05-03 21:38 27.79647 -78.73955 31845 ft 494 kts 359°
2026-05-03 21:38 27.83059 -78.73453 32175 ft 494 kts 358°
2026-05-03 21:38 27.86463 -78.72953 32490 ft 493 kts 358°
2026-05-03 21:39 27.89865 -78.72452 32794 ft 493 kts 358°
2026-05-03 21:39 27.93237 -78.71956 33092 ft 493 kts 358°
2026-05-03 21:39 27.96640 -78.71455 33364 ft 493 kts 358°
2026-05-03 21:39 28.00051 -78.70952 33675 ft 493 kts 358°
2026-05-03 21:40 28.03454 -78.70449 34000 ft 492 kts 357°
2026-05-03 21:40 28.06847 -78.69948 34254 ft 491 kts 357°
2026-05-03 21:40 28.10243 -78.69446 34502 ft 491 kts 357°
2026-05-03 21:40 28.13587 -78.68952 34727 ft 491 kts 358°
2026-05-03 21:41 28.16983 -78.68449 34929 ft 491 kts 357°
2026-05-03 21:41 28.20373 -78.67947 35163 ft 491 kts 356°
2026-05-03 21:41 28.23764 -78.67445 35366 ft 491 kts 356°
2026-05-03 21:41 28.27151 -78.66944 35573 ft 491 kts 356°
2026-05-03 21:42 28.30540 -78.66441 35779 ft 491 kts 356°
2026-05-03 21:42 28.33929 -78.65938 35959 ft 491 kts 356°
2026-05-03 21:42 28.37322 -78.65435 36131 ft 491 kts 356°
2026-05-03 21:42 28.40712 -78.64931 36306 ft 491 kts 356°
2026-05-03 21:43 28.44096 -78.64428 36488 ft 491 kts 356°
2026-05-03 21:43 28.47480 -78.63924 36661 ft 491 kts 356°
2026-05-03 21:43 28.50868 -78.63419 36836 ft 491 kts 356°
2026-05-03 21:43 28.54261 -78.62915 36963 ft 492 kts 356°
2026-05-03 21:44 28.57654 -78.62409 37114 ft 492 kts 356°
2026-05-03 21:44 28.61050 -78.61903 37277 ft 492 kts 356°
2026-05-03 21:44 28.64453 -78.61394 37429 ft 492 kts 356°
2026-05-03 21:44 28.67801 -78.60894 37568 ft 492 kts 356°
2026-05-03 21:45 28.71193 -78.60387 37701 ft 492 kts 355°
2026-05-03 21:45 28.74601 -78.59877 37831 ft 492 kts 355°
2026-05-03 21:45 28.77994 -78.59370 37980 ft 492 kts 355°
2026-05-03 21:45 28.81401 -78.58862 37994 ft 495 kts 355°
2026-05-03 21:46 28.88250 -78.57835 38186 ft 496 kts 355°
2026-05-03 21:46 28.95105 -78.56806 38331 ft 498 kts 355°
2026-05-03 21:47 28.98544 -78.56289 38432 ft 498 kts 355°
2026-05-03 21:47 29.01988 -78.55771 38516 ft 499 kts 355°
2026-05-03 21:47 29.05427 -78.55253 38652 ft 500 kts 355°
2026-05-03 21:47 29.08896 -78.54733 38585 ft 504 kts 355°
2026-05-03 21:48 29.15827 -78.53689 38711 ft 506 kts 355°
2026-05-03 21:48 29.22810 -78.52632 38890 ft 506 kts 355°
2026-05-03 21:49 29.29793 -78.51575 39063 ft 505 kts 355°
2026-05-03 21:49 29.36789 -78.50518 39094 ft 507 kts 355°
2026-05-03 21:50 29.43791 -78.49457 39089 ft 507 kts 355°
2026-05-03 21:50 29.50675 -78.48960 39091 ft 487 kts 344°
2026-05-03 21:51 29.57380 -78.49525 39092 ft 481 kts 340°
2026-05-03 21:51 29.64032 -78.50314 39101 ft 481 kts 340°
2026-05-03 21:52 29.70698 -78.51098 39097 ft 482 kts 340°
2026-05-03 21:52 29.77383 -78.51841 39097 ft 483 kts 340°
2026-05-03 21:53 29.84049 -78.52562 39097 ft 483 kts 340°
2026-05-03 21:53 29.90736 -78.53282 39145 ft 483 kts 340°
2026-05-03 21:54 29.97445 -78.54010 39101 ft 484 kts 340°
2026-05-03 21:54 30.04156 -78.54740 39099 ft 484 kts 340°
2026-05-03 21:55 30.10837 -78.55466 39104 ft 484 kts 340°
2026-05-03 21:55 30.14221 -78.55710 39101 ft 496 kts 348°
2026-05-03 21:55 30.17706 -78.55473 39106 ft 504 kts 352°
2026-05-03 21:56 30.24734 -78.54610 39108 ft 510 kts 354°
2026-05-03 21:56 30.31785 -78.53565 39107 ft 511 kts 355°
2026-05-03 21:57 30.38844 -78.52510 39108 ft 510 kts 354°
2026-05-03 21:57 30.45895 -78.51442 39143 ft 511 kts 355°
2026-05-03 21:58 30.52956 -78.50296 39110 ft 512 kts 355°
2026-05-03 21:58 30.59996 -78.49140 39112 ft 513 kts 355°
2026-05-03 21:59 30.67062 -78.47986 39112 ft 513 kts 355°
2026-05-03 21:59 30.74131 -78.46835 39165 ft 513 kts 355°
2026-05-03 22:00 30.81174 -78.45691 39119 ft 515 kts 355°
2026-05-03 22:00 30.88278 -78.44538 39118 ft 515 kts 355°
2026-05-03 22:01 30.95381 -78.43381 39121 ft 515 kts 355°
2026-05-03 22:01 31.02491 -78.42213 39139 ft 515 kts 355°
2026-05-03 22:02 31.09598 -78.41047 39124 ft 515 kts 355°
2026-05-03 22:02 31.16702 -78.39882 39127 ft 515 kts 355°
2026-05-03 22:03 31.23819 -78.38713 39129 ft 515 kts 355°
2026-05-03 22:03 31.30922 -78.37544 39135 ft 515 kts 355°
2026-05-03 22:04 31.37986 -78.36380 39132 ft 515 kts 355°
2026-05-03 22:04 31.45090 -78.35209 39133 ft 515 kts 355°
2026-05-03 22:05 31.52188 -78.34036 39130 ft 515 kts 355°
2026-05-03 22:05 31.59284 -78.32860 39132 ft 514 kts 355°
2026-05-03 22:06 31.66365 -78.31686 39136 ft 513 kts 355°
2026-05-03 22:06 31.73397 -78.30519 39136 ft 513 kts 355°
2026-05-03 22:07 31.80483 -78.29342 39140 ft 513 kts 355°
2026-05-03 22:07 31.87547 -78.28165 39141 ft 512 kts 354°
2026-05-03 22:08 31.94601 -78.26988 39143 ft 511 kts 354°
2026-05-03 22:08 32.01645 -78.25812 39143 ft 512 kts 355°
2026-05-03 22:09 32.08665 -78.24428 39182 ft 516 kts 357°
2026-05-03 22:10 32.19227 -78.22087 39140 ft 513 kts 357°
2026-05-03 22:10 32.26240 -78.20547 39140 ft 512 kts 357°
2026-05-03 22:11 32.32118 -78.19273 39142 ft 512 kts 357°
2026-05-03 22:11 32.39113 -78.17758 39148 ft 510 kts 356°
2026-05-03 22:12 32.46044 -78.16255 39145 ft 509 kts 356°
2026-05-03 22:12 32.53025 -78.14742 39141 ft 508 kts 356°
2026-05-03 22:13 32.59991 -78.13228 39189 ft 508 kts 356°
2026-05-03 22:13 32.66934 -78.11713 39146 ft 506 kts 356°
2026-05-03 22:14 32.73817 -78.10211 39145 ft 505 kts 356°
2026-05-03 22:14 32.80726 -78.08702 39146 ft 505 kts 356°
2026-05-03 22:15 32.87659 -78.07186 39146 ft 505 kts 356°
2026-05-03 22:15 32.94576 -78.05670 39146 ft 505 kts 356°
2026-05-03 22:16 33.01489 -78.04152 39143 ft 505 kts 356°
2026-05-03 22:16 33.08361 -78.02641 39143 ft 505 kts 356°
2026-05-03 22:17 33.15265 -78.01117 39147 ft 503 kts 356°
2026-05-03 22:17 33.22133 -77.99599 39139 ft 501 kts 356°
2026-05-03 22:18 33.28999 -77.98083 39140 ft 501 kts 356°
2026-05-03 22:18 33.35825 -77.96575 39138 ft 501 kts 356°
2026-05-03 22:19 33.42669 -77.95060 39137 ft 500 kts 356°
2026-05-03 22:19 33.49523 -77.93537 39138 ft 500 kts 356°
2026-05-03 22:20 33.56372 -77.92012 39143 ft 500 kts 356°
2026-05-03 22:20 33.63208 -77.90490 39170 ft 500 kts 356°
2026-05-03 22:21 33.69997 -77.88975 39130 ft 499 kts 356°
2026-05-03 22:21 33.76824 -77.87449 39114 ft 499 kts 356°
2026-05-03 22:22 33.83662 -77.85845 39110 ft 501 kts 358°
2026-05-03 22:22 33.90495 -77.84119 39117 ft 501 kts 358°
2026-05-03 22:23 33.97295 -77.82380 39107 ft 500 kts 358°
2026-05-03 22:23 34.04109 -77.80651 39119 ft 500 kts 358°
2026-05-03 22:24 34.10930 -77.78928 39119 ft 500 kts 358°
2026-05-03 22:24 34.17735 -77.77207 39118 ft 498 kts 358°
2026-05-03 22:25 34.24490 -77.75494 39107 ft 497 kts 358°
2026-05-03 22:25 34.31263 -77.73777 39108 ft 497 kts 358°
2026-05-03 22:26 34.38036 -77.72058 39151 ft 497 kts 359°
2026-05-03 22:26 34.44799 -77.70334 39107 ft 495 kts 359°
2026-05-03 22:27 34.51535 -77.68616 39100 ft 494 kts 359°
2026-05-03 22:27 34.58182 -77.66120 39101 ft 515 kts 12°
2026-05-03 22:28 34.64722 -77.62450 39105 ft 519 kts 15°
2026-05-03 22:28 34.71199 -77.58539 39070 ft 518 kts 15°
2026-05-03 22:29 34.77664 -77.54617 39089 ft 520 kts 15°
2026-05-03 22:29 34.84160 -77.50705 39088 ft 521 kts 15°
2026-05-03 22:30 34.90654 -77.46801 39095 ft 518 kts 15°
2026-05-03 22:30 34.97060 -77.42947 39100 ft 516 kts 15°
2026-05-03 22:31 35.03503 -77.39070 39105 ft 515 kts 15°
2026-05-03 22:31 35.09934 -77.35193 39133 ft 515 kts 16°
2026-05-03 22:32 35.16346 -77.31315 39104 ft 512 kts 16°
2026-05-03 22:32 35.22731 -77.27451 39096 ft 512 kts 16°
2026-05-03 22:33 35.29113 -77.23579 39102 ft 512 kts 16°
2026-05-03 22:33 35.35489 -77.19705 39105 ft 513 kts 15°
2026-05-03 22:34 35.41909 -77.15800 39101 ft 514 kts 15°
2026-05-03 22:34 35.48295 -77.11904 39102 ft 514 kts 15°
2026-05-03 22:35 35.54712 -77.07982 39104 ft 514 kts 16°
2026-05-03 22:35 35.61059 -77.04094 39103 ft 511 kts 16°
2026-05-03 22:36 35.67420 -77.00192 39101 ft 510 kts 16°
2026-05-03 22:36 35.73770 -76.96293 39098 ft 510 kts 16°
2026-05-03 22:37 35.80116 -76.92390 39119 ft 509 kts 17°
2026-05-03 22:37 35.86437 -76.88491 39088 ft 507 kts 17°
2026-05-03 22:38 35.92764 -76.84668 39086 ft 503 kts 13°
2026-05-03 22:38 35.99204 -76.81287 39094 ft 502 kts 11°
2026-05-03 22:39 36.05680 -76.78036 39098 ft 500 kts 11°
2026-05-03 22:39 36.12109 -76.74767 39094 ft 499 kts 12°
2026-05-03 22:40 36.18522 -76.71462 39093 ft 499 kts 12°
2026-05-03 22:40 36.24883 -76.68164 39127 ft 499 kts 12°
2026-05-03 22:41 36.31280 -76.64835 39090 ft 496 kts 12°
2026-05-03 22:41 36.37650 -76.61518 39077 ft 496 kts 12°
2026-05-03 22:42 36.44017 -76.58201 39075 ft 495 kts 12°
2026-05-03 22:42 36.50365 -76.54886 39091 ft 494 kts 12°
2026-05-03 22:43 36.56656 -76.51591 39077 ft 491 kts 12°
2026-05-03 22:43 36.62965 -76.48285 39081 ft 491 kts 12°
2026-05-03 22:44 36.69241 -76.44995 39082 ft 493 kts 12°
2026-05-03 22:44 36.75567 -76.41667 39081 ft 492 kts 12°
2026-05-03 22:45 36.81874 -76.38341 39083 ft 491 kts 12°
2026-05-03 22:45 36.88167 -76.35019 39079 ft 490 kts 12°
2026-05-03 22:46 36.94422 -76.31712 39090 ft 490 kts 12°
2026-05-03 22:46 37.00693 -76.28389 39082 ft 488 kts 12°
2026-05-03 22:47 37.06945 -76.25072 39063 ft 488 kts 12°
2026-05-03 22:47 37.13204 -76.21746 39067 ft 488 kts 12°
2026-05-03 22:48 37.19449 -76.18419 39077 ft 487 kts 13°
2026-05-03 22:48 37.25643 -76.15113 39079 ft 486 kts 13°
2026-05-03 22:49 37.31877 -76.11781 39091 ft 487 kts 12°
2026-05-03 22:49 37.38121 -76.08438 39123 ft 487 kts 13°
2026-05-03 22:50 37.44316 -76.05113 39093 ft 485 kts 13°
2026-05-03 22:50 37.50528 -76.01773 39084 ft 485 kts 13°
2026-05-03 22:51 37.56736 -75.98432 39077 ft 485 kts 13°
2026-05-03 22:51 37.62796 -75.94468 39075 ft 496 kts 22°
2026-05-03 22:52 37.68647 -75.89775 39072 ft 500 kts 24°
2026-05-03 22:52 37.74421 -75.84960 39072 ft 500 kts 24°
2026-05-03 22:53 37.80221 -75.80103 38623 ft 500 kts 25°
2026-05-03 22:53 37.83127 -75.77676 38760 ft 498 kts 24°
2026-05-03 22:53 37.86006 -75.75270 38980 ft 494 kts 24°
2026-05-03 22:54 37.91745 -75.70485 39062 ft 496 kts 24°
2026-05-03 22:54 37.97537 -75.65658 39067 ft 500 kts 24°
2026-05-03 22:55 38.02389 -75.61604 39056 ft 504 kts 24°
2026-05-03 22:55 38.09243 -75.55862 39051 ft 510 kts 24°
2026-05-03 22:56 38.15198 -75.50860 39048 ft 515 kts 25°
2026-05-03 22:56 38.20183 -75.46664 39054 ft 519 kts 25°
2026-05-03 22:57 38.26366 -75.41956 39023 ft 508 kts 11°
2026-05-03 22:57 38.29629 -75.40581 39061 ft 492 kts
2026-05-03 22:57 38.32958 -75.39628 39051 ft 488 kts 359°
2026-05-03 22:58 38.39612 -75.38113 39047 ft 483 kts 356°
2026-05-03 22:58 38.46246 -75.36772 39057 ft 483 kts 356°
2026-05-03 22:59 38.52894 -75.35411 39037 ft 483 kts 356°
2026-05-03 22:59 38.59501 -75.34020 39042 ft 483 kts 356°
2026-05-03 23:00 38.66141 -75.32603 39052 ft 483 kts 356°
2026-05-03 23:00 38.72796 -75.31180 39036 ft 484 kts 356°
2026-05-03 23:00 38.76120 -75.30208 39033 ft 498 kts
2026-05-03 23:01 38.79381 -75.28515 39047 ft 511 kts 14°
2026-05-03 23:01 38.85705 -75.24338 39034 ft 518 kts 19°
2026-05-03 23:02 38.92023 -75.19794 39046 ft 519 kts 20°
2026-05-03 23:02 38.98314 -75.15232 39030 ft 518 kts 19°
2026-05-03 23:03 39.04604 -75.10712 39034 ft 518 kts 19°
2026-05-03 23:03 39.10865 -75.06233 39004 ft 517 kts 19°
2026-05-03 23:04 39.17168 -75.01721 39014 ft 517 kts 19°
2026-05-03 23:04 39.23457 -74.97210 39012 ft 516 kts 19°
2026-05-03 23:05 39.29555 -74.92153 39028 ft 523 kts 26°
2026-05-03 23:05 39.35504 -74.86818 38992 ft 524 kts 27°
2026-05-03 23:06 39.41457 -74.81369 39001 ft 524 kts 27°
2026-05-03 23:06 39.47398 -74.75918 39020 ft 523 kts 27°
2026-05-03 23:07 39.53299 -74.70506 39007 ft 522 kts 27°
2026-05-03 23:07 39.59225 -74.65070 38995 ft 521 kts 27°
2026-05-03 23:08 39.65151 -74.59624 38998 ft 521 kts 27°
2026-05-03 23:08 39.71080 -74.54162 38989 ft 521 kts 27°
2026-05-03 23:09 39.76989 -74.48708 38985 ft 521 kts 27°
2026-05-03 23:09 39.82890 -74.43247 38979 ft 520 kts 27°
2026-05-03 23:10 39.88755 -74.37808 38995 ft 519 kts 27°
2026-05-03 23:10 39.94631 -74.32347 38978 ft 519 kts 27°
2026-05-03 23:11 40.00508 -74.26875 38982 ft 518 kts 27°
2026-05-03 23:11 40.06376 -74.21399 38991 ft 518 kts 27°
2026-05-03 23:12 40.12236 -74.15918 38976 ft 517 kts 27°
2026-05-03 23:12 40.18089 -74.10432 38964 ft 517 kts 27°
2026-05-03 23:13 40.23895 -74.04979 38988 ft 517 kts 28°
2026-05-03 23:13 40.29730 -73.99486 38924 ft 516 kts 27°
2026-05-03 23:14 40.35689 -73.94408 38947 ft 503 kts 17°
2026-05-03 23:14 40.41970 -73.90391 38933 ft 501 kts 15°
2026-05-03 23:15 40.48269 -73.86476 38935 ft 500 kts 16°
2026-05-03 23:15 40.54519 -73.82598 38924 ft 500 kts 16°
2026-05-03 23:16 40.60792 -73.78637 38929 ft 504 kts 20°
2026-05-03 23:16 40.63743 -73.76056 38937 ft 515 kts 34°
2026-05-03 23:16 40.66343 -73.72751 38926 ft 522 kts 41°
2026-05-03 23:17 40.71235 -73.65621 38933 ft 525 kts 43°
2026-05-03 23:17 40.76102 -73.58444 38922 ft 525 kts 43°
2026-05-03 23:18 40.80981 -73.51263 38942 ft 525 kts 43°
2026-05-03 23:18 40.85861 -73.44075 38911 ft 524 kts 43°
2026-05-03 23:19 40.90721 -73.36901 38914 ft 524 kts 43°
2026-05-03 23:19 40.93119 -73.33355 38788 ft 522 kts 43°
2026-05-03 23:19 40.95539 -73.29772 38150 ft 521 kts 42°
2026-05-03 23:19 40.97946 -73.26203 37554 ft 519 kts 43°
2026-05-03 23:20 41.00345 -73.22643 37014 ft 515 kts 43°
2026-05-03 23:20 41.02722 -73.19112 36433 ft 513 kts 43°
2026-05-03 23:20 41.05092 -73.15588 35772 ft 513 kts 43°
2026-05-03 23:20 41.07470 -73.12051 35077 ft 515 kts 43°
2026-05-03 23:21 41.09868 -73.08479 34413 ft 517 kts 43°
2026-05-03 23:21 41.12255 -73.04917 33709 ft 518 kts 43°
2026-05-03 23:21 41.14655 -73.01333 32987 ft 519 kts 43°
2026-05-03 23:21 41.17025 -72.97786 32326 ft 518 kts 43°
2026-05-03 23:22 41.21547 -72.90421 31266 ft 515 kts 56°
2026-05-03 23:22 41.23263 -72.86246 30758 ft 512 kts 60°
2026-05-03 23:22 41.24863 -72.82035 30246 ft 508 kts 61°
2026-05-03 23:23 41.26420 -72.77902 29761 ft 504 kts 61°
2026-05-03 23:23 41.27982 -72.73766 29266 ft 498 kts 61°
2026-05-03 23:23 41.29531 -72.69678 28821 ft 492 kts 61°
2026-05-03 23:23 41.31070 -72.65623 28290 ft 488 kts 60°
2026-05-03 23:24 41.32589 -72.61621 27815 ft 483 kts 60°
2026-05-03 23:24 41.34090 -72.57663 27334 ft 477 kts 61°
2026-05-03 23:24 41.35593 -72.53703 26469 ft 482 kts 61°
2026-05-03 23:24 41.37118 -72.49682 25537 ft 488 kts 61°
2026-05-03 23:25 41.38657 -72.45616 24614 ft 493 kts 61°
2026-05-03 23:25 41.40188 -72.41564 23693 ft 498 kts 61°
2026-05-03 23:25 41.41769 -72.37373 22550 ft 501 kts 61°
2026-05-03 23:25 41.43322 -72.33250 21146 ft 509 kts 61°
2026-05-03 23:26 41.44916 -72.29014 20145 ft 508 kts 61°
2026-05-03 23:26 41.46477 -72.24849 19735 ft 492 kts 61°
2026-05-03 23:26 41.47977 -72.20837 19440 ft 474 kts 61°
2026-05-03 23:26 41.49406 -72.16951 19140 ft 458 kts 61°
2026-05-03 23:27 41.50779 -72.13196 18834 ft 444 kts 61°
2026-05-03 23:27 41.52111 -72.09551 18573 ft 429 kts 61°
2026-05-03 23:27 41.53397 -72.06027 18357 ft 415 kts 61°
2026-05-03 23:27 41.54648 -72.02599 17838 ft 409 kts 61°
2026-05-03 23:28 41.55849 -71.99163 17226 ft 407 kts 64°
2026-05-03 23:28 41.56565 -71.96863 16906 ft 403 kts 65°
2026-05-03 23:28 41.57929 -71.92310 16391 ft 391 kts 66°
2026-05-03 23:28 41.58910 -71.88994 16384 ft 375 kts 63°
2026-05-03 23:29 41.59849 -71.85818 16126 ft 362 kts 63°
2026-05-03 23:29 41.60756 -71.82740 15920 ft 350 kts 63°
2026-05-03 23:29 41.61646 -71.79732 15735 ft 348 kts 63°
2026-05-03 23:29 41.62536 -71.76727 15558 ft 347 kts 63°
2026-05-03 23:30 41.63425 -71.73720 15360 ft 347 kts 63°
2026-05-03 23:30 41.64310 -71.70718 15184 ft 346 kts 63°
2026-05-03 23:30 41.65188 -71.67736 14989 ft 344 kts 63°
2026-05-03 23:30 41.66062 -71.64763 14806 ft 343 kts 63°
2026-05-03 23:31 41.66931 -71.61803 14361 ft 340 kts 63°
2026-05-03 23:31 41.67792 -71.58866 14035 ft 337 kts 63°
2026-05-03 23:31 41.68646 -71.55950 13803 ft 336 kts 63°
2026-05-03 23:31 41.69487 -71.53077 13579 ft 336 kts 63°
2026-05-03 23:32 41.70338 -71.50167 13518 ft 336 kts 63°
2026-05-03 23:32 41.71184 -71.47268 13529 ft 335 kts 63°
2026-05-03 23:32 41.72044 -71.44345 13522 ft 334 kts 61°
2026-05-03 23:32 41.73064 -71.41572 13520 ft 330 kts 55°
2026-05-03 23:33 41.74191 -71.38891 13523 ft 330 kts 54°
2026-05-03 23:33 41.75333 -71.36235 13523 ft 330 kts 54°
2026-05-03 23:33 41.76478 -71.33574 13521 ft 330 kts 54°
2026-05-03 23:33 41.77623 -71.30904 13521 ft 330 kts 54°
2026-05-03 23:34 41.78764 -71.28236 13514 ft 330 kts 54°
2026-05-03 23:34 41.79905 -71.25562 13515 ft 330 kts 54°
2026-05-03 23:34 41.81029 -71.22924 13500 ft 330 kts 54°
2026-05-03 23:34 41.82166 -71.20255 13501 ft 330 kts 54°
2026-05-03 23:35 41.83318 -71.17545 13501 ft 330 kts 54°
2026-05-03 23:35 41.84439 -71.14907 13501 ft 329 kts 54°
2026-05-03 23:35 41.85560 -71.12268 13372 ft 323 kts 54°
2026-05-03 23:35 41.86674 -71.09678 12925 ft 318 kts 53°
2026-05-03 23:36 41.87784 -71.07113 12414 ft 316 kts 53°
2026-05-03 23:36 41.88885 -71.04566 11929 ft 314 kts 53°
2026-05-03 23:36 41.89975 -71.02042 11473 ft 311 kts 53°
2026-05-03 23:36 41.91056 -70.99537 11008 ft 309 kts 53°
2026-05-03 23:37 41.92129 -70.97046 10560 ft 306 kts 53°
2026-05-03 23:37 41.93173 -70.94619 10229 ft 300 kts 53°
2026-05-03 23:37 41.94216 -70.92195 10059 ft 299 kts 53°
2026-05-03 23:37 41.95253 -70.89786 9637 ft 297 kts 53°
2026-05-03 23:38 41.96061 -70.87906 9218 ft 296 kts 53°
2026-05-03 23:38 41.96277 -70.87405 9110 ft 295 kts 54°
2026-05-03 23:38 41.97302 -70.85017 8620 ft 294 kts 54°
2026-05-03 23:38 41.98318 -70.82648 8130 ft 292 kts 54°
2026-05-03 23:39 41.99327 -70.80295 7654 ft 289 kts 54°
2026-05-03 23:39 42.00327 -70.77961 7218 ft 287 kts 54°
2026-05-03 23:39 42.01436 -70.75776 7010 ft 280 kts 45°
2026-05-03 23:39 42.02702 -70.73793 6965 ft 279 kts 42°
2026-05-03 23:40 42.03996 -70.71853 6572 ft 277 kts 42°
2026-05-03 23:40 42.05283 -70.69931 6079 ft 276 kts 42°
2026-05-03 23:40 42.06571 -70.68012 5581 ft 275 kts 42°
2026-05-03 23:40 42.07418 -70.66747 5293 ft 273 kts 42°
2026-05-03 23:41 42.09095 -70.64239 5010 ft 271 kts 42°
2026-05-03 23:41 42.09973 -70.63004 5003 ft 269 kts 36°
2026-05-03 23:41 42.11516 -70.61664 4998 ft 259 kts 15°
2026-05-03 23:41 42.13235 -70.61058 4990 ft 254 kts
2026-05-03 23:42 42.14955 -70.60678 5006 ft 253 kts
2026-05-03 23:42 42.16699 -70.60327 5006 ft 253 kts
2026-05-03 23:42 42.18444 -70.59974 4998 ft 253 kts
2026-05-03 23:42 42.20185 -70.59614 4964 ft 253 kts
2026-05-03 23:43 42.21924 -70.59248 4963 ft 249 kts
2026-05-03 23:43 42.23576 -70.58890 4889 ft 233 kts
2026-05-03 23:43 42.25142 -70.58552 4726 ft 222 kts
2026-05-03 23:43 42.26631 -70.58233 4571 ft 212 kts
2026-05-03 23:44 42.28067 -70.57927 4329 ft 206 kts
2026-05-03 23:44 42.29479 -70.57628 3987 ft 206 kts
2026-05-03 23:44 42.30887 -70.57333 3641 ft 205 kts
2026-05-03 23:44 42.32298 -70.57033 3223 ft 206 kts
2026-05-03 23:45 42.33717 -70.56732 2816 ft 206 kts
2026-05-03 23:45 42.35130 -70.56575 2408 ft 201 kts 351°
2026-05-03 23:45 42.36550 -70.56920 2198 ft 215 kts 338°
2026-05-03 23:45 42.37765 -70.57888 2138 ft 194 kts 314°
2026-05-03 23:46 42.38447 -70.59369 1977 ft 180 kts 290°
2026-05-03 23:46 42.38705 -70.60970 1957 ft 173 kts 282°
2026-05-03 23:46 42.38864 -70.62587 1967 ft 174 kts 279°
2026-05-03 23:46 42.39000 -70.64214 1968 ft 174 kts 279°
2026-05-03 23:47 42.39143 -70.65935 1992 ft 204 kts 279°
2026-05-03 23:47 42.39314 -70.67996 1973 ft 231 kts 278°
2026-05-03 23:47 42.39488 -70.70176 1978 ft 234 kts 278°
2026-05-03 23:47 42.39660 -70.72366 1979 ft 233 kts 278°
2026-05-03 23:48 42.39830 -70.74546 1977 ft 231 kts 278°
2026-05-03 23:48 42.39861 -70.76612 1964 ft 215 kts 268°
2026-05-03 23:48 42.39596 -70.78531 1972 ft 200 kts 260°
2026-05-03 23:48 42.39268 -70.80281 1991 ft 182 kts 261°
2026-05-03 23:49 42.38982 -70.81850 1988 ft 161 kts 262°
2026-05-03 23:49 42.38739 -70.83240 1965 ft 142 kts 263°
2026-05-03 23:49 42.38520 -70.84527 1986 ft 141 kts 263°
2026-05-03 23:49 42.38302 -70.85818 1987 ft 140 kts 262°
2026-05-03 23:50 42.38079 -70.87097 1833 ft 138 kts 262°
2026-05-03 23:50 42.37857 -70.88342 1620 ft 136 kts 262°
2026-05-03 23:50 42.37639 -70.89579 1432 ft 138 kts 263°
2026-05-03 23:50 42.37416 -70.90845 1227 ft 135 kts 263°
2026-05-03 23:51 42.37208 -70.92021 1110 ft 127 kts 263°
2026-05-03 23:51 42.37005 -70.93181 897 ft 128 kts 260°
2026-05-03 23:51 42.36797 -70.94359 725 ft 129 kts 260°
2026-05-03 23:51 42.36588 -70.95543 547 ft 129 kts 260°
2026-05-03 23:52 42.36383 -70.96704 374 ft 126 kts 263°
2026-05-03 23:52 42.36179 -70.97862 206 ft 128 kts 260°
2026-05-03 23:52 42.35973 -70.99028 44 ft 123 kts 262°
2026-05-03 23:52 42.35823 -70.99928 34 ft 47 kts 256°
2026-05-03 23:53 42.35770 -71.00229 29 ft 31 kts 256°
2026-05-03 23:53 42.35710 -71.00556 27 ft 44 kts 257°
2026-05-03 23:53 42.35643 -71.00938 30 ft 36 kts 260°
2026-05-03 23:53 42.35655 -71.01132 28 ft 2 kts 293°
2026-05-03 23:54 42.35663 -71.01154 28 ft 3 kts 297°
2026-05-03 23:54 42.35696 -71.01212 28 ft 16 kts 309°
2026-05-03 23:54 42.35749 -71.01331 30 ft 13 kts 285°
2026-05-03 23:54 42.35775 -71.01439 34 ft 12 kts 291°
2026-05-03 23:55 42.35809 -71.01565 32 ft 19 kts 285°
2026-05-03 23:55 42.35862 -71.01653 33 ft 12 kts 356°
2026-05-03 23:55 42.35950 -71.01618 33 ft 16 kts 19°
2026-05-03 23:55 42.36041 -71.01577 31 ft 15 kts 18°
2026-05-03 23:56 42.36112 -71.01607 30 ft 12 kts 293°
2026-05-03 23:56 42.36128 -71.01662 29 ft 0 kts 290°